Вернуться в каталог

DELTA 1 DEB

АктивенLEO
NORAD 7042·DEBRIS·🇺🇸 United States

Запущен Nov 6, 1973 с Vandenberg Space Force Base

Loading…

Ближайшие Пролёты (ближайшие 24 часа)

TLE

СвежийSource: Space-Track

Эпоха: Sep 14, 2026, 13:03 UTC

1 07042U 73086AJ  26257.54401020  .00000295  00000-0  42162-3 0  9999
2 07042 101.7144 162.4602 0314364 230.8535 126.4266 13.48446013574288

Отслеживайте DELTA 1 DEB в реальном времени с AllMySat

Download on the App Store